This demonstration page uses our WeatherBlox Daily Observations layout. Learn more.

Left ArrowRight Arrow

39.51506, -84.39828

Hourly Observations for September 14, 2015

Temp ( °F °C ) Dew Point ( °F °C ) Humidity (%) Winds ( mph kmh ) Pressure ( in mb ) Visibility ( mi km ) Precip ( " mm )
12:15 am 00:15 Clear 51 10.8 48 9 89 89 Calm 30.12 1020 10 16.0934 0 0
12:35 am 00:35 Clear 49 9.6 46 8 90 90 Calm 30.12 1020 10 16.0934 0 0
12:55 am 00:55 Clear 49 9.6 46 8 90 90 Calm 30.12 1020 10 16.0934 0 0
1:15 am 01:15 Clear 49 9.6 46 8 90 90 Calm 30.12 1020 10 16.0934 0 0
1:35 am 01:35 Clear 49 9.6 46 8 90 90 Calm 30.12 1020 7 11.26538 0 0
1:55 am 01:55 Clear with Mist and Fog 49 9.6 46 8 90 90 Calm 30.12 1020 5 8.0467 0 0
2:15 am 02:15 Clear with Mist and Fog 49 9.6 46 8 90 90 Calm 30.12 1020 3 4.82802 0 0
2:35 am 02:35 Clear with Mist and Fog 49 9.6 46 8 90 90 Calm 30.12 1020 4 6.43736 0 0
2:55 am 02:55 Clear with Mist and Fog 49 9.6 46 8 90 90 Calm 30.15 1021 5 8.0467 0 0
3:15 am 03:15 Clear 49 9.6 46 8 90 90 Calm 30.15 1021 7 11.26538 0 0
3:35 am 03:35 Clear 49 9.6 46 8 90 90 Calm 30.15 1021 7 11.26538 0 0
3:55 am 03:55 Clear with Mist and Fog 49 9.6 46 8 90 90 Calm 30.15 1021 3 4.82802 0 0
4:15 am 04:15 Mostly Cloudy with Mist and Fog 49 9.6 47 8.1 90 90 Calm 30.15 1021 0.75 1.207005 0 0
4:35 am 04:35 Mostly Cloudy with Fog 49 9.6 47 8.1 90 90 Calm 30.15 1021 0.5 0.80467 0 0
4:55 am 04:55 Mostly Cloudy with Mist and Fog 47 8.5 44 6.9 90 90 Calm 30.15 1021 0.75 1.207005 0 0
5:15 am 05:15 Clear with Mist and Fog 49 9.6 47 8.2 91 91 Calm 30.15 1021 2 3.21868 0 0
5:35 am 05:35 Mostly Cloudy with Mist and Fog 47 8.2 44 6.8 91 91 Calm 30.18 1022 0.75 1.207005 0 0
5:55 am 05:55 Mostly Cloudy with Fog 47 8.4 45 7 91 91 Calm 30.18 1022 0.5 0.80467 0 0
6:15 am 06:15 Mostly Cloudy with Mist and Fog 49 9.6 47 8.2 91 91 Calm 30.18 1022 0.75 1.207005 0 0
6:35 am 06:35 Mostly Cloudy with Mist and Fog 49 9.6 47 8.2 91 91 Calm 30.21 1023 0.75 1.207005 0 0
6:55 am 06:55 Mostly Cloudy with Mist and Fog 47 8.2 44 6.8 91 91 Calm 30.21 1023 0.75 1.207005 0 0
7:15 am 07:15 Mostly Cloudy with Fog 49 9.5 47 8.1 91 91 Calm 30.21 1023 0.5 0.80467 0 0
7:40 am 07:40 Mostly Cloudy with Fog 49 9.6 47 8.2 91 91 Calm 30.21 1023 0.5 0.80467 0 0
7:55 am 07:55 Sunny with Mist and Fog 49 9.6 47 8.2 91 91 Calm 30.21 1023 5 8.0467 0 0
8:15 am 08:15 Sunny 49 9.6 47 8.2 91 91 Calm 30.24 1024 7 11.26538 0 0
8:35 am 08:35 Sunny 54 12.4 52 10.9 91 91 Calm 30.24 1024 10 16.0934 0 0
8:55 am 08:55 Sunny 55 12.5 52 11 91 91 Calm 30.24 1024 10 16.0934 0 0
9:15 am 09:15 Sunny 57 13.8 53 11.6 87 87 SW 3 6 30.24 1024 10 16.0934 0 0
9:35 am 09:35 Sunny 60 15.3 53 11.8 80 80 SW 5 7 30.24 1024 10 16.0934 0 0
9:55 am 09:55 Sunny 60 15.5 52 10.9 74 74 SSW 6 9 30.27 1025 10 16.0934 0 0
10:15 am 10:15 Sunny 62 16.6 51 10.6 68 68 SW 7 11 30.27 1025 10 16.0934 0 0
10:35 am 10:35 Sunny 64 18 51 10.8 63 63 WSW 5 7 30.24 1024 10 16.0934 0 0
10:55 am 10:55 Sunny 67 19.5 52 11.2 59 59 SW 3 6 30.24 1024 10 16.0934 0 0
11:15 am 11:15 Sunny 69 20.8 51 10.6 52 52 SW 6 9 30.24 1024 10 16.0934 0 0
11:35 am 11:35 Sunny 69 20.8 49 9.4 48 48 SW 7 11 30.24 1024 10 16.0934 0 0
11:55 am 11:55 Sunny 71 21.6 48 8.8 44 44 SW 10 17 30.24 1024 10 16.0934 0 0
12:15 pm 12:15 Sunny 73 22.7 47 8.5 40 40 SW 7 11 30.24 1024 10 16.0934 0 0
12:35 pm 12:35 Sunny 74 23.6 48 8.9 39 39 SW 7 11 30.24 1024 10 16.0934 0 0
12:55 pm 12:55 Sunny 74 23.6 46 8 37 37 SSW 12 19 30.21 1023 10 16.0934 0 0
1:15 pm 13:15 Sunny 74 23.6 45 7.3 35 35 S 13 20 30.21 1023 10 16.0934 0 0
1:35 pm 13:35 Sunny 74 23.6 44 6.7 34 34 SW 12 19 30.21 1023 10 16.0934 0 0
1:55 pm 13:55 Sunny 74 23.6 46 7.5 36 36 SSW 12 19 30.21 1023 10 16.0934 0 0
2:15 pm 14:15 Sunny 74 23.6 44 6.8 34 34 SW 7 11 30.21 1023 10 16.0934 0 0
2:35 pm 14:35 Sunny 74 23.6 44 6.7 34 34 SW 9 15 30.21 1023 10 16.0934 0 0
2:55 pm 14:55 Sunny 76 24.2 44 6.9 33 33 SSW 9 15 30.21 1023 10 16.0934 0 0
3:15 pm 15:15 Sunny 77 25.1 46 8 34 34 SSW 9 15 30.21 1023 10 16.0934 0 0
3:35 pm 15:35 Sunny 77 24.8 44 6.8 32 32 SSW 9 15 30.18 1022 10 16.0934 0 0
3:55 pm 15:55 Sunny 77 25.1 44 6.7 31 31 WSW 7 11 30.21 1023 10 16.0934 0 0
4:15 pm 16:15 Sunny 77 25.1 45 7.1 32 32 SW 9 15 30.18 1022 10 16.0934 0 0
4:35 pm 16:35 Sunny 77 25.1 44 6.4 30 30 SW 12 19 30.18 1022 10 16.0934 0 0
4:55 pm 16:55 Sunny 77 25.1 44 6.7 31 31 SW 10 17 30.18 1022 10 16.0934 0 0
5:15 pm 17:15 Sunny 77 25.1 44 6.4 30 30 SW 10 17 30.18 1022 10 16.0934 0 0
5:35 pm 17:35 Sunny 77 25.1 45 7.2 32 32 SW 9 15 30.18 1022 10 16.0934 0 0
5:55 pm 17:55 Sunny 77 25.1 45 7.4 32 32 SW 8 13 30.18 1022 10 16.0934 0 0
6:15 pm 18:15 Sunny 76 24.5 45 7.1 33 33 SW 7 11 30.18 1022 10 16.0934 0 0
6:35 pm 18:35 Sunny 74 23.6 44 6.7 34 34 SW 7 11 30.18 1022 10 16.0934 0 0
6:55 pm 18:55 Sunny 74 23.6 47 8.4 38 38 SW 8 13 30.18 1022 10 16.0934 0 0
7:15 pm 19:15 Sunny 74 23.1 50 9.9 43 43 WSW 6 9 30.18 1022 10 16.0934 0 0
7:35 pm 19:35 Sunny 69 20.8 48 8.7 46 46 SW 5 7 30.18 1022 10 16.0934 0 0
7:55 pm 19:55 Clear 69 20.8 53 11.6 56 56 Calm 30.18 1022 10 16.0934 0 0
8:15 pm 20:15 Clear 62 16.7 54 12 74 74 WNW 3 6 30.21 1023 10 16.0934 0 0
8:35 pm 20:35 Clear 60 15.5 54 12 80 80 Calm 30.21 1023 10 16.0934 0 0
8:55 pm 20:55 Clear 60 15.3 54 12.2 82 82 Calm 30.21 1023 10 16.0934 0 0
9:15 pm 21:15 Clear 60 15.3 54 12.3 82 82 Calm 30.24 1024 10 16.0934 0 0
9:35 pm 21:35 Clear 57 13.8 52 11.1 84 84 Calm 30.24 1024 10 16.0934 0 0
9:55 pm 21:55 Clear 57 13.8 52 11.2 84 84 Calm 30.24 1024 10 16.0934 0 0
10:15 pm 22:15 Clear 57 13.8 52 11.3 85 85 N 3 6 30.24 1024 10 16.0934 0 0
10:35 pm 22:35 Clear 56 13.2 52 11.1 87 87 Calm 30.24 1024 10 16.0934 0 0
10:55 pm 22:55 Clear 55 12.9 51 10.7 87 87 Calm 30.24 1024 10 16.0934 0 0
11:15 pm 23:15 Clear 55 12.5 51 10.5 88 88 Calm 30.24 1024 10 16.0934 0 0
11:35 pm 23:35 Clear 55 12.5 51 10.5 88 88 Calm 30.27 1025 10 16.0934 0 0
11:55 pm 23:55 Clear 55 12.5 51 10.5 88 88 Calm 30.27 1025 10 16.0934 0 0

Powered by AerisWeather